| time (UTC) | temp F | wind direction | speed knots | gust knots | rain 1hr in | rain 24hr in | rain mn in | humidity % | barometer mb |
| 20260503052531 | 60 | 265 | 0.0 | 2.6 | 0.00 | 0.00 | 0.00 | 89 | 1013.3 |
| 20260503052031 | 60 | 274 | 0.9 | 2.6 | 0.00 | 0.00 | 0.00 | 89 | 1013.2 |
| 20260503051545 | 60 | 282 | 0.0 | 1.7 | 0.00 | 0.00 | 0.00 | 89 | 1013.3 |
| 20260503051034 | 60 | 0 | 0.0 | 2.6 | 0.00 | 0.00 | 0.00 | 89 | 1013.1 |
| 20260503050535 | 60 | 293 | 0.0 | 3.5 | 0.00 | 0.00 | 0.00 | 89 | 1013.1 |
| 20260503050045 | 60 | 342 | 0.9 | 3.5 | 0.00 | 0.00 | 0.00 | 89 | 1013.0 |
| 20260503045531 | 60 | 312 | 0.0 | 1.7 | 0.00 | 0.00 | 0.00 | 89 | 1012.8 |
| 20260503045036 | 60 | 0 | 0.0 | 1.7 | 0.00 | 0.00 | 0.00 | 89 | 1012.7 |
| 20260503044540 | 60 | 0 | 0.0 | 2.6 | 0.00 | 0.00 | 0.00 | 89 | 1012.7 |
| 20260503044031 | 60 | 300 | 0.9 | 2.6 | 0.00 | 0.00 | 0.00 | 88 | 1012.7 |
| 20260503043530 | 60 | 332 | 0.0 | 2.6 | 0.00 | 0.00 | 0.00 | 88 | 1012.6 |
| 20260503043048 | 60 | 308 | 0.9 | 2.6 | 0.00 | 0.00 | 0.00 | 88 | 1012.5 |
| 20260503042531 | 60 | 315 | 0.9 | 2.6 | 0.00 | 0.00 | 0.00 | 88 | 1012.3 |
| 20260503042033 | 60 | 290 | 0.0 | 1.7 | 0.00 | 0.00 | 0.00 | 88 | 1012.2 |
| 20260503041556 | 60 | 333 | 0.0 | 2.6 | 0.00 | 0.00 | 0.00 | 88 | 1012.1 |
| 20260503041033 | 60 | 0 | 0.0 | 2.6 | 0.00 | 0.00 | 0.00 | 88 | 1012.0 |
| 20260503040530 | 60 | 290 | 0.9 | 2.6 | 0.00 | 0.00 | 0.00 | 88 | 1012.0 |
| 20260503040054 | 60 | 311 | 0.9 | 2.6 | 0.00 | 0.00 | 0.00 | 88 | 1011.8 |
| 20260503035532 | 60 | 0 | 0.0 | 2.6 | 0.00 | 0.00 | 0.00 | 88 | 1011.8 |
| 20260503035034 | 60 | 20 | 0.0 | 2.6 | 0.00 | 0.00 | 0.00 | 88 | 1011.8 |
| 20260503034559 | 60 | 304 | 0.9 | 2.6 | 0.00 | 0.00 | 0.00 | 88 | 1011.7 |
| 20260503034030 | 60 | 0 | 0.9 | 2.6 | 0.00 | 0.00 | 0.00 | 88 | 1011.9 |
| 20260503033530 | 60 | 313 | 0.9 | 2.6 | 0.00 | 0.00 | 0.00 | 88 | 1011.8 |
| 20260503033049 | 60 | 311 | 0.0 | 2.6 | 0.00 | 0.00 | 0.00 | 88 | 1011.8 |
| 20260503032530 | 60 | 0 | 0.9 | 2.6 | 0.00 | 0.00 | 0.00 | 87 | 1011.8 |
| 20260503032034 | 60 | 311 | 0.9 | 2.6 | 0.00 | 0.00 | 0.00 | 87 | 1011.7 |
| 20260503031545 | 60 | 277 | 0.9 | 2.6 | 0.00 | 0.00 | 0.00 | 87 | 1011.6 |
| 20260503031031 | 60 | 316 | 0.0 | 2.6 | 0.00 | 0.00 | 0.00 | 87 | 1011.5 |
| 20260503030531 | 60 | 0 | 0.0 | 2.6 | 0.00 | 0.00 | 0.00 | 87 | 1011.6 |
| 20260503030054 | 60 | 317 | 0.0 | 2.6 | 0.00 | 0.00 | 0.00 | 87 | 1011.6 |
| 20260503025531 | 60 | 304 | 0.9 | 2.6 | 0.00 | 0.00 | 0.00 | 87 | 1011.5 |
| 20260503025033 | 60 | 285 | 0.9 | 3.5 | 0.00 | 0.00 | 0.00 | 87 | 1011.4 |
| 20260503024551 | 60 | 0 | 0.0 | 4.3 | 0.00 | 0.00 | 0.00 | 86 | 1011.4 |
| 20260503024031 | 60 | 262 | 0.9 | 4.3 | 0.00 | 0.00 | 0.00 | 86 | 1011.4 |
| 20260503023532 | 60 | 294 | 0.9 | 4.3 | 0.00 | 0.00 | 0.00 | 86 | 1011.4 |
| 20260503023051 | 60 | 284 | 0.9 | 3.5 | 0.00 | 0.00 | 0.00 | 86 | 1011.4 |
| 20260503022534 | 61 | 302 | 0.9 | 4.3 | 0.00 | 0.00 | 0.00 | 86 | 1011.5 |
| 20260503022038 | 61 | 300 | 1.7 | 5.2 | 0.00 | 0.00 | 0.00 | 86 | 1011.4 |
| 20260503021547 | 61 | 279 | 1.7 | 5.2 | 0.00 | 0.00 | 0.00 | 86 | 1011.4 |
| 20260503021034 | 61 | 305 | 0.9 | 4.3 | 0.00 | 0.00 | 0.00 | 86 | 1011.3 |
| 20260503020535 | 61 | 322 | 1.7 | 4.3 | 0.00 | 0.00 | 0.00 | 86 | 1011.3 |
| 20260503020047 | 61 | 308 | 1.7 | 3.5 | 0.00 | 0.00 | 0.00 | 86 | 1011.3 |
| 20260503015535 | 61 | 273 | 0.9 | 3.5 | 0.00 | 0.00 | 0.00 | 86 | 1011.3 |
| 20260503015035 | 61 | 251 | 0.9 | 3.5 | 0.00 | 0.00 | 0.00 | 86 | 1011.4 |
| 20260503014549 | 61 | 268 | 0.9 | 3.5 | 0.00 | 0.00 | 0.00 | 85 | 1011.3 |
| 20260503014037 | 61 | 289 | 0.9 | 6.1 | 0.00 | 0.00 | 0.00 | 85 | 1011.3 |
| 20260503013535 | 61 | 278 | 1.7 | 6.1 | 0.00 | 0.00 | 0.00 | 85 | 1011.4 |
| 20260503013048 | 61 | 306 | 1.7 | 6.1 | 0.00 | 0.00 | 0.00 | 85 | 1011.3 |
| 20260503012535 | 61 | 281 | 2.6 | 6.1 | 0.00 | 0.00 | 0.00 | 85 | 1011.3 |
| 20260503012038 | 62 | 281 | 1.7 | 6.1 | 0.00 | 0.00 | 0.00 | 85 | 1011.2 |
| 20260503011543 | 62 | 341 | 0.9 | 4.3 | 0.00 | 0.00 | 0.00 | 85 | 1011.2 |
| 20260503011035 | 62 | 311 | 0.9 | 5.2 | 0.00 | 0.00 | 0.00 | 85 | 1011.0 |
| 20260503010532 | 62 | 338 | 1.7 | 5.2 | 0.00 | 0.00 | 0.00 | 85 | 1011.2 |
| 20260503010045 | 62 | 275 | 0.9 | 7.0 | 0.00 | 0.00 | 0.00 | 85 | 1011.2 |
| 20260503005532 | 62 | 254 | 0.9 | 7.0 | 0.00 | 0.00 | 0.00 | 85 | 1011.2 |
| 20260503005040 | 62 | 309 | 2.6 | 7.0 | 0.00 | 0.00 | 0.00 | 85 | 1011.0 |
| 20260503004547 | 62 | 306 | 0.9 | 6.1 | 0.00 | 0.00 | 0.00 | 84 | 1011.1 |
| 20260503004035 | 62 | 337 | 2.6 | 6.1 | 0.00 | 0.00 | 0.00 | 85 | 1011.1 |
| 20260503003535 | 62 | 313 | 0.9 | 5.2 | 0.00 | 0.00 | 0.00 | 85 | 1011.2 |
| 20260503003102 | 62 | 304 | 0.9 | 5.2 | 0.00 | 0.00 | 0.00 | 84 | 1011.3 |
| 20260503002535 | 63 | 319 | 2.6 | 7.0 | 0.00 | 0.00 | 0.00 | 84 | 1011.3 |
| 20260503002033 | 63 | 281 | 2.6 | 7.0 | 0.00 | 0.00 | 0.00 | 84 | 1011.3 |
| 20260503001545 | 63 | 250 | 2.6 | 6.1 | 0.00 | 0.00 | 0.00 | 84 | 1011.4 |
| 20260503001031 | 63 | 288 | 1.7 | 6.1 | 0.00 | 0.00 | 0.00 | 84 | 1011.3 |
| 20260503000535 | 63 | 317 | 2.6 | 5.2 | 0.00 | 0.00 | 0.00 | 84 | 1011.3 |
| 20260503000045 | 63 | 315 | 1.7 | 4.3 | 0.00 | 0.00 | 0.00 | 84 | 1011.3 |
| 20260502235534 | 63 | 340 | 0.9 | 5.2 | 0.00 | 0.00 | 0.00 | 84 | 1011.2 |
| 20260502235035 | 63 | 252 | 2.6 | 7.8 | 0.00 | 0.00 | 0.00 | 84 | 1011.2 |
| 20260502234543 | 63 | 315 | 1.7 | 8.7 | 0.00 | 0.00 | 0.00 | 84 | 1011.4 |
| 20260502234037 | 63 | 286 | 2.6 | 8.7 | 0.00 | 0.00 | 0.00 | 84 | 1011.5 |
| 20260502233535 | 63 | 279 | 3.5 | 8.7 | 0.00 | 0.00 | 0.00 | 84 | 1011.4 |
| 20260502233048 | 64 | 332 | 3.5 | 7.0 | 0.00 | 0.00 | 0.00 | 84 | 1011.4 |
| 20260502232535 | 64 | 300 | 1.7 | 7.0 | 0.00 | 0.00 | 0.00 | 84 | 1011.3 |
| 20260502232032 | 64 | 306 | 3.5 | 7.0 | 0.00 | 0.00 | 0.00 | 84 | 1011.3 |
| 20260502231605 | 63 | 323 | 1.7 | 7.0 | 0.00 | 0.00 | 0.00 | 84 | 1011.4 |
| 20260502231032 | 63 | 308 | 2.6 | 7.8 | 0.00 | 0.00 | 0.00 | 84 | 1011.4 |
| 20260502230534 | 63 | 249 | 3.5 | 7.8 | 0.00 | 0.00 | 0.00 | 84 | 1011.4 |
| 20260502230055 | 63 | 298 | 3.5 | 7.8 | 0.00 | 0.00 | 0.00 | 84 | 1011.5 |
| 20260502225535 | 63 | 294 | 4.3 | 8.7 | 0.00 | 0.00 | 0.00 | 84 | 1011.6 |
| 20260502225035 | 63 | 319 | 4.3 | 8.7 | 0.00 | 0.00 | 0.00 | 84 | 1011.6 |
| 20260502224552 | 64 | 298 | 3.5 | 7.8 | 0.00 | 0.00 | 0.00 | 84 | 1011.7 |
| 20260502224033 | 63 | 246 | 4.3 | 7.8 | 0.00 | 0.00 | 0.00 | 84 | 1011.8 |
| 20260502223535 | 64 | 270 | 3.5 | 8.7 | 0.00 | 0.00 | 0.00 | 84 | 1012.0 |
| 20260502223049 | 64 | 286 | 5.2 | 9.6 | 0.00 | 0.00 | 0.00 | 83 | 1012.0 |
| 20260502222532 | 64 | 226 | 4.3 | 9.6 | 0.00 | 0.00 | 0.00 | 83 | 1012.1 |
| 20260502222035 | 64 | 5 | 4.3 | 10.4 | 0.00 | 0.00 | 0.00 | 83 | 1012.2 |
| 20260502221548 | 64 | 272 | 5.2 | 10.4 | 0.00 | 0.00 | 0.00 | 82 | 1012.3 |
| 20260502221035 | 64 | 294 | 3.5 | 8.7 | 0.00 | 0.00 | 0.00 | 82 | 1012.4 |
| 20260502220536 | 65 | 255 | 5.2 | 8.7 | 0.00 | 0.00 | 0.00 | 82 | 1012.3 |
| 20260502220057 | 65 | 234 | 5.2 | 10.4 | 0.00 | 0.00 | 0.00 | 81 | 1012.4 |
| 20260502215535 | 65 | 9 | 4.3 | 10.4 | 0.00 | 0.00 | 0.00 | 81 | 1012.4 |
| 20260502215034 | 66 | 255 | 4.3 | 9.6 | 0.00 | 0.00 | 0.00 | 81 | 1012.4 |
| 20260502214551 | 66 | 248 | 3.5 | 8.7 | 0.00 | 0.00 | 0.00 | 80 | 1012.4 |
| 20260502214032 | 66 | 304 | 3.5 | 11.3 | 0.00 | 0.00 | 0.00 | 81 | 1012.5 |
| 20260502213531 | 66 | 309 | 5.2 | 11.3 | 0.00 | 0.00 | 0.00 | 80 | 1012.6 |
| 20260502213046 | 66 | 289 | 5.2 | 10.4 | 0.00 | 0.00 | 0.00 | 81 | 1012.7 |
| 20260502212535 | 67 | 270 | 6.1 | 11.3 | 0.00 | 0.00 | 0.00 | 81 | 1012.7 |
| 20260502212035 | 66 | 318 | 6.1 | 11.3 | 0.00 | 0.00 | 0.00 | 82 | 1012.8 |
| 20260502211548 | 66 | 329 | 5.2 | 11.3 | 0.00 | 0.00 | 0.00 | 82 | 1012.9 |
| 20260502211035 | 66 | 264 | 5.2 | 10.4 | 0.00 | 0.00 | 0.00 | 82 | 1012.6 |
| 20260502210534 | 66 | 263 | 5.2 | 10.4 | 0.00 | 0.00 | 0.00 | 83 | 1012.6 |
| 20260502210101 | 66 | 315 | 5.2 | 9.6 | 0.00 | 0.00 | 0.00 | 83 | 1012.8 |
| 20260502205534 | 66 | 292 | 4.3 | 9.6 | 0.00 | 0.00 | 0.00 | 83 | 1012.8 |
| 20260502205039 | 65 | 21 | 4.3 | 9.6 | 0.00 | 0.00 | 0.00 | 84 | 1012.7 |
| 20260502204548 | 65 | 308 | 3.5 | 7.0 | 0.00 | 0.00 | 0.00 | 84 | 1012.8 |
| 20260502204032 | 65 | 279 | 3.5 | 10.4 | 0.00 | 0.00 | 0.00 | 84 | 1012.8 |
| 20260502203536 | 65 | 302 | 5.2 | 10.4 | 0.00 | 0.00 | 0.00 | 84 | 1013.0 |
| 20260502203052 | 65 | 306 | 5.2 | 9.6 | 0.00 | 0.00 | 0.00 | 83 | 1012.9 |
| 20260502202534 | 65 | 284 | 4.3 | 9.6 | 0.00 | 0.00 | 0.00 | 83 | 1012.9 |
| 20260502202038 | 65 | 302 | 4.3 | 8.7 | 0.00 | 0.00 | 0.00 | 83 | 1012.9 |
| 20260502201552 | 65 | 263 | 2.6 | 7.0 | 0.00 | 0.00 | 0.00 | 84 | 1012.8 |
| 20260502201035 | 65 | 286 | 2.6 | 7.0 | 0.00 | 0.00 | 0.00 | 85 | 1012.8 |
| 20260502200535 | 65 | 295 | 3.5 | 7.0 | 0.00 | 0.00 | 0.00 | 85 | 1012.9 |
| 20260502200126 | 64 | 304 | 1.7 | 7.8 | 0.00 | 0.00 | 0.00 | 86 | 1013.0 |
| 20260502195536 | 64 | 310 | 3.5 | 7.8 | 0.00 | 0.00 | 0.00 | 85 | 1013.2 |
| 20260502195038 | 64 | 308 | 3.5 | 10.4 | 0.00 | 0.00 | 0.00 | 85 | 1013.3 |
| 20260502194542 | 64 | 300 | 3.5 | 10.4 | 0.00 | 0.00 | 0.00 | 85 | 1013.3 |
| 20260502194034 | 64 | 281 | 4.3 | 10.4 | 0.00 | 0.00 | 0.00 | 85 | 1013.4 |
| 20260502193538 | 64 | 314 | 3.5 | 7.8 | 0.00 | 0.00 | 0.00 | 85 | 1013.3 |
| 20260502193050 | 64 | 262 | 2.6 | 7.8 | 0.00 | 0.00 | 0.00 | 85 | 1013.3 |
| 20260502192537 | 64 | 300 | 2.6 | 7.8 | 0.00 | 0.00 | 0.00 | 86 | 1013.3 |
| 20260502192034 | 64 | 360 | 3.5 | 8.7 | 0.00 | 0.00 | 0.00 | 86 | 1013.5 |
| 20260502191543 | 64 | 292 | 3.5 | 8.7 | 0.00 | 0.00 | 0.00 | 85 | 1013.5 |
| 20260502191034 | 64 | 315 | 4.3 | 7.8 | 0.00 | 0.00 | 0.00 | 86 | 1013.7 |
| 20260502190535 | 65 | 254 | 4.3 | 7.8 | 0.00 | 0.00 | 0.00 | 86 | 1013.8 |
| 20260502190101 | 65 | 287 | 4.3 | 7.8 | 0.00 | 0.00 | 0.00 | 86 | 1014.0 |
| 20260502185533 | 64 | 294 | 3.5 | 7.0 | 0.00 | 0.00 | 0.00 | 86 | 1013.8 |
| 20260502185032 | 64 | 272 | 2.6 | 6.1 | 0.00 | 0.00 | 0.00 | 87 | 1013.9 |
| 20260502184558 | 64 | 299 | 3.5 | 6.1 | 0.00 | 0.00 | 0.00 | 86 | 1013.9 |
| 20260502184034 | 64 | 280 | 2.6 | 6.1 | 0.00 | 0.00 | 0.00 | 87 | 1013.9 |
| 20260502183532 | 64 | 272 | 1.7 | 7.0 | 0.00 | 0.00 | 0.00 | 86 | 1013.9 |
| 20260502183051 | 64 | 264 | 3.5 | 7.0 | 0.00 | 0.00 | 0.00 | 86 | 1014.0 |
| 20260502182531 | 64 | 298 | 2.6 | 7.0 | 0.00 | 0.00 | 0.00 | 86 | 1014.0 |
| 20260502182035 | 64 | 263 | 2.6 | 7.8 | 0.00 | 0.00 | 0.00 | 86 | 1014.1 |
| 20260502181552 | 64 | 254 | 2.6 | 7.8 | 0.00 | 0.00 | 0.00 | 86 | 1014.3 |
| 20260502181035 | 64 | 273 | 4.3 | 7.8 | 0.00 | 0.00 | 0.00 | 86 | 1014.2 |
| 20260502180535 | 64 | 266 | 2.6 | 6.1 | 0.00 | 0.00 | 0.00 | 86 | 1014.2 |
| 20260502180112 | 64 | 311 | 1.7 | 4.3 | 0.00 | 0.00 | 0.00 | 86 | 1014.1 |
| 20260502164032 | 62 | 0 | 0.0 | 2.6 | 0.00 | 0.00 | 0.00 | 87 | 1014.6 |
| 20260502163535 | 62 | 352 | 0.0 | 2.6 | 0.00 | 0.00 | 0.00 | 87 | 1014.6 |
| 20260502163048 | 62 | 310 | 0.0 | 2.6 | 0.00 | 0.00 | 0.00 | 88 | 1014.8 |
| 20260502162533 | 62 | 26 | 0.0 | 1.7 | 0.00 | 0.00 | 0.00 | 88 | 1014.7 |
| 20260502162035 | 62 | 0 | 0.0 | 1.7 | 0.00 | 0.00 | 0.00 | 88 | 1014.6 |
| 20260502161545 | 62 | 0 | 0.0 | 2.6 | 0.00 | 0.00 | 0.00 | 88 | 1014.5 |
| 20260502161033 | 62 | 0 | 0.9 | 4.3 | 0.00 | 0.00 | 0.00 | 88 | 1014.5 |
| 20260502160531 | 62 | 294 | 0.9 | 4.3 | 0.00 | 0.00 | 0.00 | 88 | 1014.7 |
| 20260502152030 | 62 | 0 | 0.0 | 1.7 | 0.00 | 0.00 | 0.00 | 89 | 1014.6 |
| 20260502151556 | 62 | 0 | 0.0 | 0.0 | 0.00 | 0.00 | 0.00 | 89 | 1014.6 |
| 20260502151034 | 62 | 0 | 0.0 | 0.0 | 0.00 | 0.00 | 0.00 | 89 | 1014.4 |
| 20260502150534 | 62 | 0 | 0.0 | 0.0 | 0.00 | 0.00 | 0.00 | 89 | 1014.4 |
| 20260502130532 | 61 | 0 | 0.0 | 0.0 | 0.00 | 0.00 | 0.00 | 88 | 1013.7 |
| 20260502123534 | 61 | 0 | 0.0 | 0.9 | 0.00 | 0.00 | 0.00 | 88 | 1013.7 |
| 20260502123047 | 61 | 0 | 0.0 | 1.7 | 0.00 | 0.00 | 0.00 | 88 | 1013.7 |
| 20260502122535 | 61 | 0 | 0.0 | 1.7 | 0.00 | 0.00 | 0.00 | 88 | 1013.6 |
| 20260502122032 | 61 | 0 | 0.0 | 0.9 | 0.00 | 0.00 | 0.00 | 88 | 1013.5 |
| 20260502121600 | 61 | 0 | 0.0 | 1.7 | 0.00 | 0.00 | 0.00 | 88 | 1013.5 |
| 20260502121037 | 61 | 0 | 0.0 | 1.7 | 0.00 | 0.00 | 0.00 | 88 | 1013.6 |
| 20260502120532 | 61 | 0 | 0.0 | 0.9 | 0.00 | 0.00 | 0.00 | 88 | 1013.5 |
| 20260502115534 | 61 | 0 | 0.0 | 0.9 | 0.00 | 0.00 | 0.00 | 88 | 1013.4 |
| 20260502115031 | 61 | 0 | 0.0 | 0.0 | 0.00 | 0.00 | 0.00 | 88 | 1013.4 |
| 20260502114550 | 61 | 0 | 0.0 | 0.0 | 0.00 | 0.00 | 0.00 | 88 | 1013.3 |
| 20260502114035 | 61 | 0 | 0.0 | 0.0 | 0.00 | 0.00 | 0.00 | 88 | 1013.3 |
| 20260502113533 | 61 | 0 | 0.0 | 1.7 | 0.00 | 0.00 | 0.00 | 88 | 1013.3 |
| 20260502113045 | 61 | 0 | 0.0 | 1.7 | 0.00 | 0.00 | 0.00 | 88 | 1013.2 |
| 20260502112531 | 61 | 0 | 0.0 | 0.9 | 0.00 | 0.00 | 0.00 | 88 | 1013.3 |
| 20260502112031 | 61 | 0 | 0.0 | 0.9 | 0.00 | 0.00 | 0.00 | 88 | 1013.2 |
| 20260502111556 | 61 | 0 | 0.0 | 0.0 | 0.00 | 0.00 | 0.00 | 88 | 1013.3 |
| 20260502111035 | 61 | 0 | 0.0 | 0.0 | 0.00 | 0.00 | 0.00 | 88 | 1013.3 |
| 20260502110532 | 61 | 0 | 0.0 | 0.9 | 0.00 | 0.00 | 0.00 | 88 | 1013.4 |
| 20260502110050 | 61 | 0 | 0.0 | 0.9 | 0.00 | 0.00 | 0.00 | 88 | 1013.3 |
| 20260502105538 | 61 | 0 | 0.0 | 4.3 | 0.00 | 0.00 | 0.00 | 88 | 1013.2 |
| 20260502105034 | 61 | 0 | 0.0 | 4.3 | 0.00 | 0.00 | 0.00 | 88 | 1013.2 |
| 20260502104553 | 61 | 212 | 0.9 | 4.3 | 0.00 | 0.00 | 0.00 | 88 | 1013.2 |
| 20260502104037 | 61 | 260 | 0.0 | 1.7 | 0.00 | 0.00 | 0.00 | 88 | 1013.2 |
| 20260502103531 | 61 | 0 | 0.0 | 0.9 | 0.00 | 0.00 | 0.00 | 88 | 1013.2 |
| 20260502103053 | 61 | 0 | 0.0 | 0.9 | 0.00 | 0.00 | 0.00 | 88 | 1013.2 |
| 20260502102537 | 61 | 0 | 0.0 | 0.9 | 0.00 | 0.00 | 0.00 | 88 | 1013.2 |
| 20260502102035 | 61 | 0 | 0.0 | 0.0 | 0.00 | 0.00 | 0.00 | 88 | 1013.2 |
| 20260502101605 | 61 | 0 | 0.0 | 0.9 | 0.00 | 0.00 | 0.00 | 88 | 1013.2 |
| 20260502101035 | 61 | 0 | 0.0 | 0.9 | 0.00 | 0.00 | 0.00 | 88 | 1013.1 |
| 20260502100535 | 61 | 0 | 0.0 | 2.6 | 0.00 | 0.00 | 0.00 | 88 | 1013.1 |
| 20260502100116 | 61 | 0 | 0.0 | 2.6 | 0.00 | 0.00 | 0.00 | 88 | 1013.0 |
| 20260502091034 | 61 | 0 | 0.0 | 1.7 | 0.00 | 0.00 | 0.00 | 87 | 1013.2 |
| 20260502090534 | 61 | 210 | 0.0 | 0.9 | 0.00 | 0.00 | 0.00 | 87 | 1013.1 |
| 20260502071034 | 62 | 277 | 0.0 | 1.7 | 0.00 | 0.00 | 0.00 | 86 | 1013.8 |
| 20260502070535 | 62 | 0 | 0.0 | 1.7 | 0.00 | 0.00 | 0.00 | 86 | 1013.9 |
| 20260502070054 | 62 | 0 | 0.0 | 1.7 | 0.00 | 0.00 | 0.00 | 86 | 1014.0 |
| 20260502065531 | 62 | 0 | 0.0 | 1.7 | 0.00 | 0.00 | 0.00 | 86 | 1013.9 |
| 20260502065033 | 62 | 327 | 0.0 | 1.7 | 0.00 | 0.00 | 0.00 | 86 | 1014.0 |
| 20260502064552 | 62 | 0 | 0.0 | 1.7 | 0.00 | 0.00 | 0.00 | 86 | 1013.9 |
| 20260502064031 | 62 | 352 | 0.0 | 1.7 | 0.00 | 0.00 | 0.00 | 86 | 1013.9 |
| 20260502063530 | 62 | 0 | 0.0 | 0.9 | 0.00 | 0.00 | 0.00 | 86 | 1013.9 |
| 20260502063057 | 62 | 0 | 0.0 | 0.9 | 0.00 | 0.00 | 0.00 | 86 | 1013.8 |
| 20260502062531 | 62 | 304 | 0.0 | 2.6 | 0.00 | 0.00 | 0.00 | 86 | 1013.9 |
| 20260502062032 | 62 | 275 | 0.0 | 2.6 | 0.00 | 0.00 | 0.00 | 86 | 1013.9 |
| 20260502061547 | 62 | 229 | 0.0 | 2.6 | 0.00 | 0.00 | 0.00 | 86 | 1013.9 |
| 20260502061031 | 62 | 0 | 0.0 | 1.7 | 0.00 | 0.00 | 0.00 | 86 | 1013.9 |
| 20260502060531 | 62 | 0 | 0.0 | 2.6 | 0.00 | 0.00 | 0.00 | 86 | 1013.9 |
| 20260502060107 | 62 | 229 | 0.0 | 2.6 | 0.00 | 0.00 | 0.00 | 86 | 1013.9 |
| 20260502055531 | 62 | 229 | 0.9 | 2.6 | 0.00 | 0.00 | 0.00 | 86 | 1014.0 |
| 20260502055031 | 62 | 215 | 0.0 | 2.6 | 0.00 | 0.00 | 0.00 | 86 | 1014.0 |
| 20260502054549 | 62 | 0 | 0.0 | 2.6 | 0.00 | 0.00 | 0.00 | 86 | 1014.0 |
| 20260502054030 | 62 | 252 | 0.0 | 2.6 | 0.00 | 0.00 | 0.00 | 86 | 1013.9 |
| 20260502053531 | 62 | 0 | 0.9 | 2.6 | 0.00 | 0.00 | 0.00 | 86 | 1013.9 |
| 20260502053100 | 62 | 0 | 0.0 | 2.6 | 0.00 | 0.00 | 0.00 | 86 | 1014.0 |